TimeMDT,TemperatureF,Dew PointF,Humidity,Sea Level PressureIn,VisibilityMPH,Wind Direction,Wind SpeedMPH,Gust SpeedMPH,PrecipitationIn,Events,Conditions,WindDirDegrees,DateUTC
12:15 AM,71.6,46.4,41,30.04,10.0,Calm,Calm,-,N/A,,Clear,0,2013-09-04 06:15:00
12:35 AM,71.6,46.4,41,30.05,10.0,ENE,5.8,-,N/A,,Clear,60,2013-09-04 06:35:00
12:55 AM,71.6,48.2,43,30.05,10.0,ENE,6.9,-,N/A,,Clear,70,2013-09-04 06:55:00
1:15 AM,71.6,48.2,43,30.05,10.0,ENE,4.6,-,N/A,,Clear,60,2013-09-04 07:15:00
1:35 AM,69.8,50.0,49,30.05,10.0,NE,6.9,-,N/A,,Clear,40,2013-09-04 07:35:00
1:55 AM,69.8,50.0,49,30.05,10.0,NE,6.9,-,N/A,,Clear,50,2013-09-04 07:55:00
2:15 AM,68.0,50.0,52,30.05,10.0,NE,6.9,-,N/A,,Clear,40,2013-09-04 08:15:00
2:35 AM,68.0,51.8,56,30.05,10.0,NE,9.2,-,N/A,,Clear,40,2013-09-04 08:35:00
2:55 AM,66.2,51.8,60,30.05,10.0,NE,8.1,-,N/A,,Clear,40,2013-09-04 08:55:00
3:15 AM,66.2,51.8,60,30.05,10.0,NE,6.9,-,N/A,,Clear,50,2013-09-04 09:15:00
3:35 AM,66.2,53.6,64,30.06,10.0,NE,8.1,-,N/A,,Clear,40,2013-09-04 09:35:00
3:55 AM,66.2,51.8,60,30.06,10.0,ENE,5.8,-,N/A,,Clear,60,2013-09-04 09:55:00
4:15 AM,66.2,53.6,64,30.07,10.0,NE,4.6,-,N/A,,Clear,50,2013-09-04 10:15:00
4:35 AM,66.2,53.6,64,30.07,10.0,ENE,6.9,-,N/A,,Clear,60,2013-09-04 10:35:00
4:55 AM,66.2,53.6,64,30.08,10.0,NE,6.9,-,N/A,,Clear,50,2013-09-04 10:55:00
5:15 AM,64.4,53.6,68,30.08,10.0,NE,6.9,-,N/A,,Clear,50,2013-09-04 11:15:00
5:35 AM,64.4,53.6,68,30.08,10.0,NE,8.1,-,N/A,,Clear,50,2013-09-04 11:35:00
5:55 AM,64.4,53.6,68,30.08,10.0,NE,8.1,-,N/A,,Clear,50,2013-09-04 11:55:00
6:15 AM,64.4,55.4,73,30.08,10.0,NE,9.2,-,N/A,,Clear,50,2013-09-04 12:15:00
6:35 AM,64.4,55.4,73,30.09,10.0,NE,9.2,-,N/A,,Partly Cloudy,40,2013-09-04 12:35:00
7:15 AM,66.2,55.4,68,30.10,10.0,NE,10.4,-,N/A,,Mostly Cloudy,50,2013-09-04 13:15:00
7:35 AM,66.2,55.4,68,30.10,10.0,NE,9.2,-,N/A,,Overcast,50,2013-09-04 13:35:00
8:15 AM,66.2,57.2,73,30.11,10.0,NE,8.1,-,N/A,,Overcast,50,2013-09-04 14:15:00
8:35 AM,66.2,57.2,73,30.12,10.0,ENE,10.4,-,N/A,,Mostly Cloudy,60,2013-09-04 14:35:00
8:55 AM,68.0,57.2,68,30.12,10.0,NE,11.5,-,N/A,,Scattered Clouds,50,2013-09-04 14:55:00
9:15 AM,68.0,57.2,68,30.12,10.0,NE,11.5,-,N/A,,Clear,50,2013-09-04 15:15:00
9:35 AM,68.0,57.2,68,30.12,10.0,ENE,11.5,-,N/A,,Partly Cloudy,60,2013-09-04 15:35:00
9:55 AM,69.8,59.0,68,30.12,10.0,ENE,11.5,-,N/A,,Scattered Clouds,70,2013-09-04 15:55:00
10:15 AM,71.6,59.0,64,30.12,10.0,ENE,9.2,-,N/A,,Mostly Cloudy,60,2013-09-04 16:15:00
10:35 AM,73.4,60.8,65,30.13,10.0,East,9.2,-,N/A,,Mostly Cloudy,90,2013-09-04 16:35:00
10:55 AM,75.2,60.8,61,30.12,10.0,East,10.4,-,N/A,,Mostly Cloudy,80,2013-09-04 16:55:00
11:15 AM,75.2,60.8,61,30.12,8.0,East,9.2,-,N/A,,Partly Cloudy,100,2013-09-04 17:15:00
11:35 AM,80.6,60.8,51,30.11,10.0,East,10.4,-,N/A,,Partly Cloudy,100,2013-09-04 17:35:00
11:55 AM,80.6,62.6,54,30.11,10.0,East,8.1,-,N/A,,Clear,100,2013-09-04 17:55:00
12:15 PM,82.4,62.6,51,30.11,10.0,East,9.2,-,N/A,,Partly Cloudy,90,2013-09-04 18:15:00
12:55 PM,84.2,62.6,48,30.09,10.0,East,5.8,-,N/A,,Clear,100,2013-09-04 18:55:00
1:15 PM,86.0,62.6,45,30.09,10.0,ESE,8.1,-,N/A,,Clear,110,2013-09-04 19:15:00
1:35 PM,87.8,62.6,43,30.08,10.0,SSE,6.9,-,N/A,,Partly Cloudy,160,2013-09-04 19:35:00
1:55 PM,87.8,60.8,40,30.07,10.0,East,8.1,-,N/A,,Partly Cloudy,100,2013-09-04 19:55:00
2:15 PM,89.6,60.8,38,30.07,10.0,SE,9.2,-,N/A,,Clear,130,2013-09-04 20:15:00
2:35 PM,89.6,59.0,36,30.07,10.0,SE,10.4,-,N/A,,Clear,130,2013-09-04 20:35:00
2:55 PM,89.6,59.0,36,30.07,10.0,SSE,8.1,-,N/A,,Partly Cloudy,150,2013-09-04 20:55:00
3:35 PM,89.6,60.8,38,30.06,10.0,NE,8.1,-,N/A,,Clear,40,2013-09-04 21:35:00
4:15 PM,89.6,60.8,38,30.06,10.0,ESE,6.9,16.1,N/A,,Clear,120,2013-09-04 22:15:00
4:35 PM,89.6,60.8,38,30.05,10.0,East,10.4,-,N/A,,Clear,80,2013-09-04 22:35:00
4:55 PM,89.6,60.8,38,30.05,10.0,East,10.4,-,N/A,,Partly Cloudy,90,2013-09-04 22:55:00
5:15 PM,87.8,60.8,40,30.05,10.0,NE,12.7,-,N/A,,Partly Cloudy,50,2013-09-04 23:15:00
5:35 PM,84.2,60.8,45,30.05,10.0,NE,15.0,-,N/A,,Clear,40,2013-09-04 23:35:00
5:55 PM,82.4,60.8,48,30.04,10.0,NE,17.3,-,N/A,,Clear,40,2013-09-04 23:55:00
6:15 PM,82.4,60.8,48,30.04,10.0,NE,15.0,19.6,N/A,,Clear,40,2013-09-05 00:15:00
6:35 PM,82.4,60.8,48,30.04,10.0,NE,16.1,-,N/A,,Clear,40,2013-09-05 00:35:00
6:55 PM,82.4,60.8,48,30.05,10.0,NE,15.0,-,N/A,,Clear,50,2013-09-05 00:55:00
7:15 PM,82.4,60.8,48,30.05,10.0,ENE,13.8,-,N/A,,Clear,60,2013-09-05 01:15:00
7:35 PM,80.6,60.8,51,30.06,10.0,ENE,10.4,-,N/A,,Clear,60,2013-09-05 01:35:00
8:15 PM,80.6,60.8,51,30.07,10.0,ENE,8.1,-,N/A,,Clear,60,2013-09-05 02:15:00
8:35 PM,80.6,59.0,48,30.07,10.0,East,9.2,-,N/A,,Clear,100,2013-09-05 02:35:00
8:55 PM,80.6,59.0,48,30.08,10.0,East,8.1,-,N/A,,Clear,100,2013-09-05 02:55:00
9:15 PM,78.8,59.0,51,30.09,10.0,East,8.1,-,N/A,,Clear,90,2013-09-05 03:15:00
9:35 PM,78.8,59.0,51,30.09,10.0,ESE,10.4,-,N/A,,Clear,110,2013-09-05 03:35:00
9:55 PM,78.8,59.0,51,30.09,10.0,ESE,10.4,-,N/A,,Partly Cloudy,110,2013-09-05 03:55:00
10:15 PM,78.8,59.0,51,30.09,10.0,East,10.4,-,N/A,,Clear,100,2013-09-05 04:15:00
10:35 PM,78.8,57.2,47,30.09,10.0,ESE,11.5,-,N/A,,Clear,110,2013-09-05 04:35:00
10:55 PM,77.0,57.2,50,30.09,10.0,East,12.7,-,N/A,,Clear,100,2013-09-05 04:55:00
11:15 PM,75.2,57.2,53,30.09,10.0,East,8.1,-,N/A,,Clear,100,2013-09-05 05:15:00
11:35 PM,75.2,57.2,53,30.08,10.0,East,8.1,-,N/A,,Clear,100,2013-09-05 05:35:00
11:55 PM,73.4,57.2,57,30.08,10.0,East,5.8,-,N/A,,Clear,80,2013-09-05 05:55:00